Location: Unspecified
(0.0000°N, 0.0000°E)
Time: 09:11:23
(UTC+00:00)

A-11 Canister half - Pass Details

Date: 22 June 2024
Orbit: 1515 x 1684 km, 47.2° (Epoch: 23 July)

Event Time Altitude Azimuth Distance (km) Brightness Sun altitude
Exits shadow 04:09:43 27° 196° (SSW) 2,592 9.8 -25.6°
Drops below altitude 10° 04:14:34 10° 168° (SSE) 3,679 10.8 -24.5°
Sets 04:18:04 0° 159° (SSE) 4,672 11.5 -23.7°
